Weather History for 08451 - December, 2013

Change the Weather History Date:

Monday, December 2, 2013

  Actual Average Record
Temperature  
Mean Temperature 50 °F -  
Max Temperature 68 °F 60 °F - ()
Min Temperature 32 °F 43 °F - ()
Degree Days  
Heating Degree Days 15    
Moisture  
Dew Point 33 °F    
Average Humidity 53    
Maximum Humidity 81    
Minimum Humidity 22    
Precipitation  
Precipitation 0.00 in 0.14 in - ()
Sea Level Pressure  
Sea Level Pressure 30.07 in    
Wind  
Wind Speed 2 mph ()    
Max Wind Speed 12 mph    
Max Gust Speed 16 mph    
Visibility 7.0 miles    
Events      
T = Trace of Precipitation, MM = Missing Value Source: Averaged Metar Reports

Daily Weather History Graph

Daily Weather History Graph

Search for Another Location

Airport or City:

Trip Planner

Search our weather history database for the weather conditions in past years. The results will help you decide how hot, cold, wet, or windy it might be!

Date:

Astronomy

Dec. 02, 2013 Rise Set
Actual Time 8:19 AM CET 6:08 PM CET
Civil Twilight 7:50 AM CET 6:36 PM CET
Nautical Twilight 7:18 AM CET 7:08 PM CET
Astronomical Twilight 6:47 AM CET 7:39 PM CET
Moon 7:29 AM CET (12/2) 5:57 PM CET (12/2)
Length of Visible Light 10h 45m
Length of Day
9h 48m
Waning Crescent, 0% of the Moon is Illuminated
Dec 2
Waning Crescent
Dec 3
New
Dec 9
First Quarter
Dec 17
Full
Dec 25
Last Quarter

Hourly Weather History & Observations

Time (CET) Temp. Windchill Dew Point Humidity Pressure Visibility Wind Dir Wind Speed Gust Speed Precip Events Conditions
12:00 AM 41 °F - 28 °F 48% 30.07 in - SSE 3.5 mph - -  
1:00 AM 40 °F - 28 °F 50% 30.07 in 9 mi Calm Calm - -  
2:00 AM 38 °F - 28 °F 55% 30.06 in - Calm Calm - -  
3:00 AM 34 °F - 26 °F 63% 30.06 in - Calm Calm - -  
4:30 AM 35.6 °F - 26.6 °F 70% 30.06 in - Calm Calm - N/A   Clear
5:00 AM 34 °F - 27 °F 65% 30.06 in - NNE 2.3 mph - -  
5:00 AM 33.8 °F - 26.6 °F 75% 30.04 in - SSW 2.3 mph - N/A   Clear
5:30 AM 35.6 °F - 26.6 °F 70% 30.04 in - Calm Calm - N/A   Clear
6:00 AM 34 °F - 26 °F 64% 30.07 in - NE 2.3 mph - -  
6:00 AM 35.6 °F - 26.6 °F 70% 30.06 in - Calm Calm - N/A   Clear
6:30 AM 32.0 °F 28.7 °F 26.6 °F 80% 30.04 in - NNE 3.5 mph - N/A   Clear
7:00 AM 32 °F - 26 °F 70% 30.07 in 9 mi Calm Calm - -  
7:00 AM 32.0 °F - 26.6 °F 80% 30.06 in - Calm Calm - N/A   Clear
7:30 AM 32.0 °F - 24.8 °F 75% 30.06 in - Calm Calm - N/A   Clear
8:00 AM 32 °F - 26 °F 71% 30.07 in - North 3.5 mph - -  
8:00 AM 32.0 °F - 26.6 °F 80% 30.06 in - Variable 2.3 mph - N/A   Clear
8:30 AM 32.0 °F - 26.6 °F 80% 30.06 in - Variable 1.2 mph - N/A   Clear
9:00 AM 35 °F - 27 °F 64% 30.09 in - NNW 1.2 mph - -  
9:00 AM 33.8 °F - 28.4 °F 81% 30.06 in - Variable 1.2 mph - N/A   Clear
9:30 AM 39.2 °F - 30.2 °F 70% 30.06 in - Variable 1.2 mph - N/A   Clear
10:00 AM 41.0 °F - 30.2 °F 65% 30.09 in - Variable 1.2 mph - N/A   Clear
10:30 AM 44.6 °F - 32.0 °F 61% 30.09 in - Variable 2.3 mph - N/A   Clear
11:00 AM 51 °F - 33 °F 39% 30.11 in - NNW 2.3 mph - -  
11:00 AM 50.0 °F - 33.8 °F 54% 30.09 in - Variable 2.3 mph - N/A   Clear
11:30 AM 53.6 °F - 33.8 °F 47% 30.09 in - Variable 2.3 mph - N/A   Clear
12:00 PM 61 °F - 35 °F 25% 30.10 in - NE 6.9 mph - -  
12:00 PM 60.8 °F - 33.8 °F 36% 30.09 in - Variable 4.6 mph - N/A   Clear
12:30 PM 62.6 °F - 37.4 °F 39% 30.06 in - ENE 9.2 mph - N/A   Clear
1:00 PM 64 °F - 37 °F 25% 30.08 in - East 9.2 mph - -  
1:00 PM 62.6 °F - 37.4 °F 39% 30.06 in - East 8.1 mph - N/A   Clear
1:30 PM 64.4 °F - 37.4 °F 37% 30.06 in - ENE 4.6 mph - N/A   Clear
2:00 PM 66 °F - 38 °F 25% 30.06 in - ESE 5.8 mph - -  
2:00 PM 66.2 °F - 39.2 °F 37% 30.04 in - East 4.6 mph 16.1 mph N/A   Clear
2:30 PM 66.2 °F - 37.4 °F 35% 30.04 in - East 3.5 mph - N/A   Clear
3:00 PM 67 °F - 38 °F 23% 30.04 in - ESE 6.9 mph - -  
3:00 PM 66.2 °F - 39.2 °F 37% 30.04 in 6.2 mi ESE 5.8 mph - N/A   Partly Cloudy
3:30 PM 66.2 °F - 37.4 °F 35% 30.04 in 6.2 mi ENE 4.6 mph - N/A   Partly Cloudy
4:00 PM 66.2 °F - 37.4 °F 35% 30.04 in 6.2 mi East 5.8 mph - N/A   Partly Cloudy
4:30 PM 64.4 °F - 35.6 °F 34% 30.04 in 6.2 mi North 11.5 mph - N/A   Partly Cloudy
5:00 PM 64 °F - 35 °F 22% 30.06 in - North 11.5 mph - -  
5:00 PM 62.6 °F - 33.8 °F 34% 30.04 in 6.2 mi North 11.5 mph - N/A   Partly Cloudy
5:30 PM 62.6 °F - 33.8 °F 34% 30.06 in - North 8.1 mph - N/A   Clear
6:00 PM 62 °F - 38 °F 29% 30.08 in - ESE 2.3 mph - -  
6:00 PM 60.8 °F - 39.2 °F 45% 30.06 in - Variable 1.2 mph - N/A   Clear
6:30 PM 57.2 °F - 37.4 °F 48% 30.06 in - Variable 1.2 mph - N/A   Clear
7:00 PM 57 °F - 39 °F 39% 30.10 in - Calm Calm - -  
7:00 PM 57.2 °F - 39.2 °F 51% 30.09 in - Calm Calm - N/A   Clear
7:30 PM 53.6 °F - 39.2 °F 58% 30.09 in - Calm Calm - N/A   Clear
8:00 PM 50 °F - 35 °F 45% 30.11 in - NNE 1.2 mph - -  
8:00 PM 51.8 °F - 35.6 °F 54% 30.09 in - Variable 1.2 mph - N/A   Clear
8:30 PM 50.0 °F - 35.6 °F 58% 30.09 in - Calm Calm - N/A   Clear
9:00 PM 47 °F - 35 °F 52% 30.12 in - Calm Calm - -  
9:00 PM 48.2 °F - 35.6 °F 62% 30.09 in - Calm Calm - N/A   Clear
9:30 PM 46.4 °F - 35.6 °F 66% 30.12 in - Calm Calm - N/A   Clear
10:00 PM 46.4 °F - 37.4 °F 71% 30.12 in - Calm Calm - N/A   Clear
10:30 PM 44.6 °F - 35.6 °F 71% 30.12 in - Variable 2.3 mph - N/A   Clear
11:00 PM 44 °F - 37 °F 69% 30.14 in - Calm Calm - -  
11:00 PM 44.6 °F - 37.4 °F 76% 30.12 in - Calm Calm - N/A   Clear